Time,TemperatureF,DewpointF,PressureIn,WindDirection,WindDirectionDegrees,WindSpeedMPH,WindSpeedGustMPH,Humidity,HourlyPrecipIn,Conditions,Clouds,dailyrainin,SoftwareType,DateUTC
2013-06-02 00:02:00,62.0,60.0,29.73,NW,312,2.0,5.0,93,0.00,,,0.77,,2013-06-02 05:02:00,
2013-06-02 00:12:00,62.0,60.0,29.73,NW,312,2.0,5.0,93,0.00,,,0.77,,2013-06-02 05:12:00,
2013-06-02 00:22:00,62.0,60.0,29.74,East,83,0.0,5.0,93,0.00,,,0.73,,2013-06-02 05:22:00,
2013-06-02 00:32:00,62.0,60.0,29.74,NNE,29,1.0,5.0,93,0.00,,,0.70,,2013-06-02 05:32:00,
2013-06-02 00:42:00,62.0,60.0,29.74,NNE,29,1.0,5.0,93,0.00,,,0.70,,2013-06-02 05:42:00,
2013-06-02 00:52:00,61.0,59.0,29.74,ESE,117,0.0,3.0,93,0.00,,,0.65,,2013-06-02 05:52:00,
2013-06-02 01:01:00,61.0,59.0,29.74,ESE,117,0.0,3.0,93,0.00,,,0.62,,2013-06-02 06:01:00,
2013-06-02 01:12:00,61.0,59.0,29.73,ESE,117,0.0,3.0,93,0.00,,,0.57,,2013-06-02 06:12:00,
2013-06-02 01:21:00,61.0,59.0,29.73,ESE,117,0.0,3.0,93,0.00,,,0.57,,2013-06-02 06:21:00,
2013-06-02 01:32:00,61.0,59.0,29.73,ESE,117,1.0,3.0,93,0.00,,,0.55,,2013-06-02 06:32:00,
2013-06-02 01:42:00,61.0,59.0,29.73,ESE,117,1.0,3.0,93,0.00,,,0.55,,2013-06-02 06:42:00,
2013-06-02 01:52:00,60.0,58.0,29.74,ESE,120,1.0,3.0,93,0.00,,,0.51,,2013-06-02 06:52:00,
2013-06-02 02:01:00,60.0,58.0,29.74,ESE,120,0.0,1.0,93,0.00,,,0.48,,2013-06-02 07:01:00,
2013-06-02 02:11:00,60.0,58.0,29.74,ESE,120,0.0,1.0,93,0.00,,,0.48,,2013-06-02 07:11:00,
2013-06-02 02:21:00,60.0,58.0,29.74,South,173,0.0,5.0,93,0.00,,,0.43,,2013-06-02 07:21:00,
2013-06-02 02:31:00,60.0,58.0,29.74,South,173,0.0,3.0,93,0.00,,,0.40,,2013-06-02 07:31:00,
2013-06-02 02:42:00,60.0,58.0,29.74,South,173,0.0,1.0,93,0.00,,,0.36,,2013-06-02 07:42:00,
2013-06-02 02:52:00,60.0,58.0,29.74,South,173,0.0,1.0,93,0.00,,,0.36,,2013-06-02 07:52:00,
2013-06-02 03:01:00,59.0,57.0,29.75,South,173,0.0,1.0,93,0.00,,,0.33,,2013-06-02 08:01:00,
2013-06-02 03:11:00,59.0,57.0,29.75,South,173,0.0,1.0,93,0.00,,,0.33,,2013-06-02 08:11:00,
2013-06-02 03:21:00,59.0,57.0,29.75,South,173,0.0,0.0,93,0.00,,,0.31,,2013-06-02 08:21:00,
2013-06-02 03:31:00,59.0,57.0,29.75,South,173,0.0,1.0,93,0.00,,,0.31,,2013-06-02 08:31:00,
2013-06-02 03:41:00,59.0,57.0,29.75,South,173,0.0,1.0,93,0.00,,,0.31,,2013-06-02 08:41:00,
2013-06-02 03:52:00,59.0,57.0,29.76,South,173,0.0,1.0,93,0.00,,,0.30,,2013-06-02 08:52:00,
2013-06-02 04:01:00,58.0,56.0,29.76,South,173,0.0,0.0,93,0.00,,,0.29,,2013-06-02 09:01:00,
2013-06-02 04:11:00,58.0,56.0,29.76,South,173,0.0,0.0,93,0.00,,,0.29,,2013-06-02 09:11:00,
2013-06-02 04:21:00,58.0,56.0,29.76,South,173,0.0,1.0,94,0.00,,,0.26,,2013-06-02 09:21:00,
2013-06-02 04:33:00,58.0,56.0,29.76,South,173,0.0,0.0,94,0.00,,,0.25,,2013-06-02 09:33:00,
2013-06-02 04:42:00,58.0,56.0,29.76,South,173,0.0,0.0,94,0.00,,,0.25,,2013-06-02 09:42:00,
2013-06-02 04:53:00,58.0,56.0,29.78,South,173,1.0,5.0,94,0.00,,,0.24,,2013-06-02 09:53:00,
2013-06-02 05:02:00,58.0,56.0,29.78,South,173,0.0,0.0,94,0.00,,,0.24,,2013-06-02 10:02:00,
2013-06-02 05:12:00,58.0,56.0,29.78,South,173,0.0,0.0,94,0.00,,,0.24,,2013-06-02 10:12:00,
2013-06-02 05:22:00,58.0,56.0,29.78,South,181,0.0,3.0,94,0.00,,,0.24,,2013-06-02 10:22:00,
2013-06-02 05:32:00,58.0,56.0,29.78,South,181,0.0,0.0,94,0.00,,,0.24,,2013-06-02 10:32:00,
2013-06-02 05:42:00,58.0,56.0,29.78,South,181,0.0,0.0,94,0.00,,,0.24,,2013-06-02 10:42:00,
2013-06-02 05:52:00,58.0,56.0,29.78,South,181,0.0,1.0,94,0.00,,,0.24,,2013-06-02 10:52:00,
2013-06-02 06:02:00,58.0,57.0,29.79,South,188,1.0,3.0,95,0.00,,,0.24,,2013-06-02 11:02:00,
2013-06-02 06:12:00,58.0,57.0,29.79,South,188,1.0,3.0,95,0.00,,,0.24,,2013-06-02 11:12:00,
2013-06-02 06:21:00,59.0,58.0,29.80,NNW,330,0.0,8.0,95,0.00,,,0.24,,2013-06-02 11:21:00,
2013-06-02 06:32:00,59.0,58.0,29.80,West,281,0.0,5.0,95,0.01,,,0.25,,2013-06-02 11:32:00,
2013-06-02 06:42:00,59.0,58.0,29.80,West,281,0.0,5.0,95,0.01,,,0.25,,2013-06-02 11:42:00,
2013-06-02 06:52:00,59.0,58.0,29.81,West,281,0.0,1.0,95,0.01,,,0.25,,2013-06-02 11:52:00,
2013-06-02 07:01:00,59.0,58.0,29.81,West,281,0.0,1.0,95,0.01,,,0.25,,2013-06-02 12:01:00,
2013-06-02 07:11:00,59.0,58.0,29.81,West,281,0.0,1.0,95,0.01,,,0.25,,2013-06-02 12:11:00,
2013-06-02 07:21:00,60.0,59.0,29.81,SE,128,0.0,5.0,95,0.01,,,0.25,,2013-06-02 12:21:00,
2013-06-02 07:32:00,60.0,59.0,29.82,SE,128,0.0,1.0,95,0.00,,,0.25,,2013-06-02 12:32:00,
2013-06-02 07:42:00,60.0,59.0,29.82,SE,128,0.0,1.0,95,0.00,,,0.25,,2013-06-02 12:42:00,
2013-06-02 07:52:00,60.0,59.0,29.82,SSE,165,0.0,6.0,95,0.00,,,0.25,,2013-06-02 12:52:00,
2013-06-02 08:01:00,60.0,59.0,29.82,West,279,1.0,5.0,95,0.00,,,0.25,,2013-06-02 13:01:00,
2013-06-02 08:11:00,60.0,59.0,29.82,West,279,1.0,5.0,95,0.00,,,0.25,,2013-06-02 13:11:00,
2013-06-02 08:21:00,60.0,59.0,29.83,SE,130,0.0,3.0,95,0.00,,,0.25,,2013-06-02 13:21:00,
2013-06-02 08:32:00,60.0,58.0,29.83,SE,130,1.0,3.0,94,0.00,,,0.25,,2013-06-02 13:32:00,
2013-06-02 08:42:00,60.0,58.0,29.83,SE,130,1.0,3.0,94,0.00,,,0.25,,2013-06-02 13:42:00,
2013-06-02 08:52:00,61.0,59.0,29.83,WNW,298,0.0,8.0,94,0.00,,,0.25,,2013-06-02 13:52:00,
2013-06-02 09:01:00,61.0,59.0,29.83,West,273,0.0,5.0,94,0.00,,,0.25,,2013-06-02 14:01:00,
2013-06-02 09:11:00,61.0,59.0,29.83,West,273,0.0,5.0,94,0.00,,,0.25,,2013-06-02 14:11:00,
2013-06-02 09:21:00,61.0,59.0,29.84,WNW,286,0.0,6.0,94,0.00,,,0.25,,2013-06-02 14:21:00,
2013-06-02 09:32:00,61.0,59.0,29.84,WNW,286,0.0,3.0,94,0.00,,,0.25,,2013-06-02 14:32:00,
2013-06-02 09:42:00,61.0,59.0,29.84,WNW,286,0.0,3.0,94,0.00,,,0.25,,2013-06-02 14:42:00,
2013-06-02 09:52:00,62.0,60.0,29.84,East,97,1.0,6.0,93,0.00,,,0.25,,2013-06-02 14:52:00,
2013-06-02 10:01:00,62.0,60.0,29.84,NW,311,3.0,6.0,93,0.00,,,0.25,,2013-06-02 15:01:00,
2013-06-02 10:11:00,62.0,60.0,29.84,NW,311,3.0,6.0,93,0.00,,,0.25,,2013-06-02 15:11:00,
2013-06-02 10:21:00,63.0,61.0,29.84,NW,311,1.0,5.0,93,0.00,,,0.25,,2013-06-02 15:21:00,
2013-06-02 10:32:00,63.0,61.0,29.85,NNW,329,2.0,6.0,92,0.00,,,0.25,,2013-06-02 15:32:00,
2013-06-02 10:43:00,63.0,60.0,29.85,NNW,336,0.0,10.0,91,0.00,,,0.25,,2013-06-02 15:43:00,
2013-06-02 10:53:00,63.0,60.0,29.85,NNW,336,0.0,10.0,91,0.00,,,0.25,,2013-06-02 15:53:00,
2013-06-02 11:03:00,63.0,60.0,29.85,NW,315,2.0,6.0,90,0.00,,,0.25,,2013-06-02 16:03:00,
2013-06-02 11:13:00,63.0,60.0,29.85,NW,315,2.0,6.0,90,0.00,,,0.25,,2013-06-02 16:13:00,
2013-06-02 11:23:00,63.0,60.0,29.85,WSW,254,5.0,9.0,90,0.00,,,0.25,,2013-06-02 16:23:00,
2013-06-02 11:33:00,64.0,60.0,29.85,WNW,297,6.0,8.0,88,0.00,,,0.25,,2013-06-02 16:33:00,
2013-06-02 11:42:00,64.0,60.0,29.85,WNW,297,6.0,8.0,88,0.00,,,0.25,,2013-06-02 16:42:00,
2013-06-02 11:52:00,64.0,59.0,29.85,NNW,338,3.0,9.0,84,0.00,,,0.25,,2013-06-02 16:52:00,
2013-06-02 12:02:00,65.0,60.0,29.85,WSW,258,3.0,8.0,83,0.00,,,0.25,,2013-06-02 17:02:00,
2013-06-02 12:12:00,65.0,60.0,29.85,WSW,258,3.0,8.0,83,0.00,,,0.25,,2013-06-02 17:12:00,
2013-06-02 12:22:00,65.0,58.0,29.86,NNW,338,4.0,10.0,79,0.00,,,0.25,,2013-06-02 17:22:00,
2013-06-02 12:32:00,65.0,58.0,29.87,NNW,328,6.0,10.0,79,0.00,,,0.25,,2013-06-02 17:32:00,
2013-06-02 12:42:00,64.0,58.0,29.87,North,356,8.0,14.0,82,0.00,,,0.25,,2013-06-02 17:42:00,
2013-06-02 12:52:00,64.0,58.0,29.87,North,356,8.0,14.0,82,0.00,,,0.25,,2013-06-02 17:52:00,
2013-06-02 13:01:00,63.0,58.0,29.88,NNW,341,10.0,14.0,83,0.00,,,0.25,,2013-06-02 18:01:00,
2013-06-02 13:11:00,63.0,58.0,29.88,NNW,341,10.0,14.0,83,0.00,,,0.25,,2013-06-02 18:11:00,
2013-06-02 13:21:00,62.0,58.0,29.89,NNW,332,5.0,10.0,86,0.01,,,0.26,,2013-06-02 18:21:00,
2013-06-02 13:32:00,62.0,58.0,29.89,WNW,297,5.0,9.0,87,0.01,,,0.26,,2013-06-02 18:32:00,
2013-06-02 13:42:00,63.0,59.0,29.89,NNW,328,3.0,8.0,87,0.01,,,0.26,,2013-06-02 18:42:00,
2013-06-02 13:52:00,63.0,59.0,29.89,NNW,328,3.0,8.0,87,0.01,,,0.26,,2013-06-02 18:52:00,
2013-06-02 14:01:00,64.0,60.0,29.88,NNW,336,4.0,9.0,86,0.01,,,0.26,,2013-06-02 19:01:00,
2013-06-02 14:11:00,64.0,60.0,29.88,NNW,336,4.0,9.0,86,0.01,,,0.26,,2013-06-02 19:11:00,
2013-06-02 14:21:00,66.0,59.0,29.89,NNW,329,9.0,15.0,79,0.00,,,0.26,,2013-06-02 19:21:00,
2013-06-02 14:32:00,66.0,59.0,29.89,WNW,302,6.0,14.0,79,0.00,,,0.26,,2013-06-02 19:32:00,
2013-06-02 14:42:00,66.0,59.0,29.89,WNW,302,6.0,14.0,79,0.00,,,0.26,,2013-06-02 19:42:00,
2013-06-02 14:52:00,65.0,59.0,29.90,NNW,329,10.0,14.0,81,0.00,,,0.26,,2013-06-02 19:52:00,
2013-06-02 15:02:00,65.0,59.0,29.91,NNW,331,9.0,20.0,82,0.00,,,0.26,,2013-06-02 20:02:00,
2013-06-02 15:11:00,65.0,59.0,29.91,NNW,331,9.0,20.0,82,0.00,,,0.26,,2013-06-02 20:11:00,
2013-06-02 15:22:00,64.0,58.0,29.91,NE,35,9.0,10.0,82,0.00,,,0.26,,2013-06-02 20:22:00,
2013-06-02 15:32:00,64.0,58.0,29.91,North,357,7.0,15.0,82,0.00,,,0.26,,2013-06-02 20:32:00,
2013-06-02 15:42:00,64.0,58.0,29.91,North,357,7.0,15.0,82,0.00,,,0.26,,2013-06-02 20:42:00,
2013-06-02 15:52:00,64.0,58.0,29.91,North,1,8.0,16.0,82,0.00,,,0.26,,2013-06-02 20:52:00,
2013-06-02 16:01:00,65.0,59.0,29.90,NE,36,9.0,14.0,80,0.00,,,0.26,,2013-06-02 21:01:00,
2013-06-02 16:11:00,65.0,59.0,29.90,NE,36,9.0,14.0,80,0.00,,,0.26,,2013-06-02 21:11:00,
2013-06-02 16:21:00,64.0,57.0,29.90,NNW,342,5.0,16.0,79,0.00,,,0.26,,2013-06-02 21:21:00,
2013-06-02 16:33:00,65.0,58.0,29.90,North,349,5.0,14.0,79,0.00,,,0.26,,2013-06-02 21:33:00,
2013-06-02 16:42:00,65.0,58.0,29.90,North,349,5.0,14.0,79,0.00,,,0.26,,2013-06-02 21:42:00,
2013-06-02 16:53:00,64.0,57.0,29.90,NW,318,6.0,16.0,79,0.00,,,0.26,,2013-06-02 21:53:00,
2013-06-02 17:03:00,63.0,57.0,29.91,NNW,340,14.0,23.0,80,0.00,,,0.26,,2013-06-02 22:03:00,
2013-06-02 17:12:00,63.0,57.0,29.91,NNW,340,14.0,23.0,80,0.00,,,0.26,,2013-06-02 22:12:00,
2013-06-02 17:23:00,62.0,56.0,29.91,NNW,331,10.0,23.0,82,0.00,,,0.26,,2013-06-02 22:23:00,
2013-06-02 17:33:00,61.0,55.0,29.91,North,349,12.0,18.0,81,0.00,,,0.26,,2013-06-02 22:33:00,
2013-06-02 17:42:00,61.0,55.0,29.91,North,349,12.0,18.0,81,0.00,,,0.26,,2013-06-02 22:42:00,
2013-06-02 17:53:00,61.0,55.0,29.91,North,355,9.0,18.0,81,0.00,,,0.26,,2013-06-02 22:53:00,
2013-06-02 18:02:00,61.0,55.0,29.91,North,358,8.0,10.0,81,0.00,,,0.26,,2013-06-02 23:02:00,
2013-06-02 18:12:00,61.0,55.0,29.91,North,358,8.0,10.0,81,0.00,,,0.26,,2013-06-02 23:12:00,
2013-06-02 18:22:00,61.0,54.0,29.91,NW,317,4.0,20.0,79,0.00,,,0.26,,2013-06-02 23:22:00,
2013-06-02 18:32:00,61.0,54.0,29.91,NNE,16,13.0,15.0,79,0.00,,,0.26,,2013-06-02 23:32:00,
2013-06-02 18:42:00,61.0,54.0,29.91,NNE,16,13.0,15.0,79,0.00,,,0.26,,2013-06-02 23:42:00,
2013-06-02 18:52:00,60.0,54.0,29.92,NNE,15,4.0,15.0,81,0.00,,,0.26,,2013-06-02 23:52:00,
2013-06-02 19:01:00,59.0,54.0,29.92,NNW,343,6.0,10.0,82,0.00,,,0.26,,2013-06-03 00:01:00,
2013-06-02 19:11:00,59.0,54.0,29.92,NNE,33,7.0,15.0,82,0.00,,,0.26,,2013-06-03 00:11:00,
2013-06-02 19:21:00,59.0,54.0,29.92,NNE,33,7.0,15.0,82,0.00,,,0.26,,2013-06-03 00:21:00,
2013-06-02 19:32:00,59.0,54.0,29.92,North,0,7.0,16.0,82,0.00,,,0.26,,2013-06-03 00:32:00,
2013-06-02 19:42:00,59.0,54.0,29.92,NNW,346,5.0,15.0,82,0.00,,,0.26,,2013-06-03 00:42:00,
2013-06-02 19:52:00,59.0,54.0,29.92,NNW,346,5.0,15.0,82,0.00,,,0.26,,2013-06-03 00:52:00,
2013-06-02 20:01:00,58.0,53.0,29.93,NNE,27,7.0,8.0,82,0.00,,,0.26,,2013-06-03 01:01:00,
2013-06-02 20:11:00,58.0,53.0,29.93,NNE,27,7.0,8.0,82,0.00,,,0.26,,2013-06-03 01:11:00,
2013-06-02 20:21:00,58.0,53.0,29.92,NNE,16,9.0,20.0,82,0.00,,,0.26,,2013-06-03 01:21:00,
2013-06-02 20:32:00,58.0,53.0,29.93,NNE,20,9.0,16.0,82,0.00,,,0.26,,2013-06-03 01:32:00,
2013-06-02 20:42:00,58.0,53.0,29.93,NNE,20,9.0,16.0,82,0.00,,,0.26,,2013-06-03 01:42:00,
2013-06-02 20:52:00,57.0,52.0,29.93,North,6,9.0,15.0,82,0.00,,,0.26,,2013-06-03 01:52:00,
2013-06-02 21:02:00,57.0,52.0,29.94,NNE,26,10.0,10.0,82,0.00,,,0.26,,2013-06-03 02:02:00,
2013-06-02 21:12:00,57.0,52.0,29.94,NNE,26,10.0,10.0,82,0.00,,,0.26,,2013-06-03 02:12:00,
2013-06-02 21:22:00,57.0,51.0,29.94,NNE,16,9.0,15.0,81,0.00,,,0.16,,2013-06-03 02:22:00,
2013-06-02 21:32:00,56.0,50.0,29.95,NNE,31,6.0,15.0,81,0.00,,,0.11,,2013-06-03 02:32:00,
2013-06-02 21:42:00,56.0,50.0,29.95,NNE,31,6.0,15.0,81,0.00,,,0.11,,2013-06-03 02:42:00,
2013-06-02 21:52:00,56.0,50.0,29.96,NNE,22,6.0,18.0,81,0.00,,,0.03,,2013-06-03 02:52:00,
2013-06-02 22:02:00,56.0,50.0,29.96,North,7,9.0,14.0,80,0.00,,,0.02,,2013-06-03 03:02:00,
2013-06-02 22:12:00,56.0,50.0,29.96,North,7,9.0,14.0,80,0.00,,,0.02,,2013-06-03 03:12:00,
2013-06-02 22:22:00,55.0,49.0,29.97,NE,51,6.0,12.0,80,0.00,,,0.02,,2013-06-03 03:22:00,
2013-06-02 22:33:00,55.0,49.0,29.97,NNE,16,6.0,9.0,81,0.00,,,0.02,,2013-06-03 03:33:00,
2013-06-02 22:43:00,55.0,49.0,29.97,NNE,16,6.0,9.0,81,0.00,,,0.02,,2013-06-03 03:43:00,
2013-06-02 22:53:00,55.0,49.0,29.98,North,2,7.0,10.0,81,0.00,,,0.02,,2013-06-03 03:53:00,
2013-06-02 23:03:00,54.0,48.0,29.98,NE,49,4.0,8.0,81,0.00,,,0.02,,2013-06-03 04:03:00,
2013-06-02 23:13:00,54.0,48.0,29.98,NE,49,4.0,8.0,81,0.00,,,0.02,,2013-06-03 04:13:00,
2013-06-02 23:23:00,54.0,48.0,29.98,NE,45,6.0,10.0,80,0.00,,,0.02,,2013-06-03 04:23:00,
2013-06-02 23:33:00,54.0,48.0,29.98,ENE,62,6.0,9.0,80,0.00,,,0.02,,2013-06-03 04:33:00,
2013-06-02 23:42:00,54.0,48.0,29.98,ENE,62,6.0,9.0,80,0.00,,,0.02,,2013-06-03 04:42:00,
2013-06-02 23:53:00,54.0,48.0,29.98,NNE,26,6.0,12.0,81,0.00,,,0.02,,2013-06-03 04:53:00,